Regional Weather Roundup
Issued by NWS

Home | Current Version | Previous Version | Text Only | Print | Product List | Glossary On
Versions: 1 2 3 4 5 6 7 8 9 10 11 12 13 14 15 16 17 18 19 20 21 22 23 24 25 26 27 28 29 30 31 32 33 34 35 36 37 38 39 40 41 42 43 44 45 46 47 48 49 50
000
ASUS42 KTBW 200819
RWRFL
FLORIDA REGIONAL WEATHER ROUNDUP
NATIONAL WEATHER SERVICE TAMPA BAY RUSKIN FL
400 AM EDT WED SEP 20 2017

NOTE: "FAIR" INDICATES FEW OR NO CLOUDS BELOW 12,000 FEET WITH NO
SIGNIFICANT WEATHER AND/OR OBSTRUCTIONS TO VISIBILITY.

FLZ001>010-012>015-112-114-115-200900-
PANHANDLE FLORIDA

CITY           SKY/WX    TMP DP  RH WIND       PRES   REMARKS
PENSACOLA      CLEAR     79  74  84 SW3       29.97F
PENSACOLA NAS  CLEAR     74  72  93 CALM      29.97F
MILTON NAS     MOCLDY    72  72 100 CALM      29.97
CRESTVIEW      CLEAR     73  71  93 CALM      29.98F
DUKE FIELD     FAIR      74  73  97 CALM      29.97F
VALPARAISO     MOCLDY    77  73  90 NW6       29.96F
MARY ESTHER    PTCLDY    76  73  90 N3        29.96S
PANAMA CITY    FAIR      74  71  91 CALM      29.96F
TYNDALL AFB    PTCLDY    80  76  89 W6        29.97F
APALACHICOLA   MOCLDY    76  76 100 CALM      29.96F

STATION/POSITION SKY/WX   TEMP    WIND        PRES    WAVE   SWELL
                          AIR SEA DIR/SP/G            HT/PER HT/PER
                          (F)     (DEG/KT/KT) (MB)    (FT/S) (FT/S)
30.1N   87.6W              82 83  230/  8/  8 1014.8F
29.2N   88.2W              83 85  200/  6/  8 1015.2
28.8N   86.0W              81 83  280/  4/  4 1015.0F   0
PANAMA CITY BEAC           81     250/  9/ 10 1015.1F
TOWER C                    80                 1015.5F
28.5N   84.5W              81 82  350/  6/  6 1014.8F   0

$$
FLZ011-016>038-118-127-128-134-139-239-200900-
NORTH FLORIDA

CITY           SKY/WX    TMP DP  RH WIND       PRES   REMARKS
MARIANNA       PTCLDY    74  72  93 S3        29.94F
TALLAHASSEE    CLEAR     76  74  93 N7        29.96S
PERRY          CLEAR     74  73  96 SE5       29.97F FOG
LIVE OAK       CLEAR     73  72  94 CALM      29.98F
CROSS CITY     CLEAR     71  69  96 CALM      30.02F
LAKE CITY      FAIR      70  68  94 CALM      29.98F
GAINESVILLE    CLEAR    N/A N/A N/A CALM      30.01F
WILLISTON      CLEAR     70  68  94 CALM      29.99S
PALATKA        FAIR      68  68 100 CALM      29.98F
MAYPORT NAS    CLEAR     73  72  96 SW5       29.97F
JACKSONVILLE   CLEAR     71  71 100 CALM      29.97F
JAX NAS        CLEAR     76  71  85 SW5       29.98F
JAX CECIL      CLEAR     68  68 100 CALM      29.98S FOG
FERNANDINA BEA FAIR      73  70  88 MISG      29.96S
ST AUGUSTINE   CLEAR     72  70  93 W3        29.99S
PALM COAST     FAIR      71  53  53 CALM      29.97S

STATION/POSITION SKY/WX   TEMP    WIND        PRES    WAVE   SWELL
                          AIR SEA DIR/SP/G            HT/PER HT/PER
                          (F)     (DEG/KT/KT) (MB)    (FT/S) (FT/S)
SHELL POINT      NOT AVBL
KEATON BEACH               77     100/  2/  3 1014.6S
CEDAR KEY                  81     170/  9/ 10 1015.4F
FERNANDINA                 76 82  190/  2/  4 1015.6F
30.7N   81.3W                 82                N/A     3/13   2/13
MAYPORT                    76 82  220/  4/  6 1015.3F
31.4N   80.9W              80 80  180/ 10/ 12 1014.9S   3/11   3/11
ST AUGUSTINE               75 82  250/  6/  6 1015.3S

$$
FLZ040-043>046-052-053-057-058-063-144-200900-
INTERIOR CENTRAL FLORIDA

CITY           SKY/WX    TMP DP  RH WIND       PRES   REMARKS
OCALA          PTCLDY    69  68  96 CALM      30.00R
THE VILLAGES     N/A     72  72 100 CALM      29.89S
LEESBURG       CLEAR     74  73  97 CALM      29.98F
SANFORD        CLEAR     73  70  90 CALM      29.96F
ORLANDO INTL   CLEAR     74  73  97 CALM      29.97F
KISSIMMEE      CLEAR     74  73  97 CALM      29.98F
WINTER HAVEN   CLEAR     74  70  87 CALM      29.98F
LAKELAND       CLEAR     72  72 100 CALM      29.98S
SEBRING        FAIR      76  70  82 CALM      29.95F
OKEECHOBEE     CLEAR     72  70  94 CALM      29.95S

$$
FLZ041-047-054-059-064-141-147-200900-
EAST CENTRAL FLORIDA

CITY           SKY/WX    TMP DP  RH WIND       PRES   REMARKS
DAYTONA BEACH  CLEAR     74  72  93 CALM      29.97F
DELAND         CLEAR     72  72 100 CALM      29.97S
JFK SPACE CTR  CLOUDY    75  75 100 CALM      29.95F
CAPE CANAVERAL MOCLDY    79  73  80 E5        29.94F
PATRICK AFB    PTCLDY    79  75  89 NE6       29.94F
MELBOURNE      PTCLDY    78  75  90 CALM      29.95F
VERO BEACH     CLOUDY    78  73  84 CALM      29.95S
FT PIERCE      MOCLDY    75  75 100 CALM      29.95S
STUART         CLEAR     77  73  88 CALM      29.96S

STATION/POSITION SKY/WX   TEMP    WIND        PRES    WAVE   SWELL
                          AIR SEA DIR/SP/G            HT/PER HT/PER
                          (F)     (DEG/KT/KT) (MB)    (FT/S) (FT/S)
28.5N   80.2W              83 85   80/  8/ 12 1015.5F   5/12   5/12
28.9N   78.5W                 84  120/  2/  4 1014.5F   6/15   7/15
TRIDENT PIER               81 83   50/  5/  7 1015.9F
28.4N   80.5W                 83                N/A     2/12   2/12
27.5N   80.2W                 82                N/A     5/13   3/13

$$
FLZ050-056-061-142-242-148-248-149-249-151-251-155-255-
160-260-200900-
WEST CENTRAL FLORIDA

CITY           SKY/WX    TMP DP  RH WIND       PRES   REMARKS
CRYSTAL RIVER  FAIR     N/A N/A N/A CALM      29.99S
INVERNESS      FAIR      68  68 100 CALM      29.99S
BROOKSVILLE    PTCLDY    69  68  96 CALM      29.99S FOG
CLEARWATER AIR FAIR      75  70  83 CALM      29.97S
ST PETE CLEARW CLEAR     76  72  87 CALM      29.97S
TAMPA INTL     CLEAR     76  70  82 N3        29.98S
TAMPA EXEC     CLEAR     73  70  88 CALM      29.98S
PLANT CITY     CLEAR     72  72 100 CALM      30.00R
MACDILL AFB    CLEAR     73  73 100 CALM      29.97S
PETER O KNIGHT MOCLDY    77  77 100 CALM      29.98R
ST PETERSBURG  CLEAR     80  72  76 SE9       29.95F
SARASOTA       PTCLDY    74  72  93 NE5       29.95S
VENICE         CLOUDY    77  73  88 E8        29.95F

STATION/POSITION SKY/WX   TEMP    WIND        PRES    WAVE   SWELL
                          AIR SEA DIR/SP/G            HT/PER HT/PER
                          (F)     (DEG/KT/KT) (MB)    (FT/S) (FT/S)
27.3N   84.2W                 83                N/A     2/ 4
CLEARWATER BEACH           79 84   50/  4/  4 1015.1F
MIDDLE TAMPA BAY           78     100/  8/  9 1014.8F
VENICE                     77 84   60/  6/  8 1014.3F

$$
FLZ066-069-070-075>078-162-262-165-265-200900-
SOUTHWEST FLORIDA AND KEYS

CITY           SKY/WX    TMP DP  RH WIND       PRES   REMARKS
PUNTA GORDA    CLOUDY    77  74  90 E7        29.96F
FT MYERS       CLEAR     77  76  96 E6        29.94S
SOUTHWEST INTL CLEAR     77  74  90 E7        29.94S
NAPLES         CLEAR     77  76  96 E6        29.93S
IMMOKALEE      FAIR      77  75  94 CALM      29.95S
MARATHON       CLEAR     80  72  76 CALM      29.94R
KEY WEST NAS   PTCLDY    84  78  82 MISG      29.94R HX  95
KEY WEST INTL  MOCLDY    82  77  84 CALM      29.94S

STATION/POSITION SKY/WX   TEMP    WIND        PRES    WAVE   SWELL
                          AIR SEA DIR/SP/G            HT/PER HT/PER
                          (F)     (DEG/KT/KT) (MB)    (FT/S) (FT/S)
NAPLES           NOT AVBL
DRY TORTUGAS               82        CALM     1013.9F
SAND KEY                   81                 1014.5R

$$
FLZ067-068-071>074-168-172>174-200900-
SOUTHEAST FLORIDA

CITY           SKY/WX    TMP DP  RH WIND       PRES   REMARKS
W PALM BEACH   PTCLDY    78  72  81 NE3       29.94F
FT LAUDER-EXEC CLEAR     78  76  93 N3        29.94S
FT LAUDERDALE  PTCLDY    78  78 100 N3        29.93S
POMPANO BEACH  PTCLDY    78  76  93 N6        29.94S
PEMBROKE PINES CLEAR     78  75  90 CALM      29.95S
OPA LOCKA      CLEAR     80  79  96 CALM      29.94S
MIAMI          MOCLDY    81  77  88 CALM      29.94S
WEST KENDALL   CLEAR     78  73  84 CALM      29.94S
HOMESTEAD      CLEAR     79  79 100 CALM      29.93S

STATION/POSITION SKY/WX   TEMP    WIND        PRES    WAVE   SWELL
                          AIR SEA DIR/SP/G            HT/PER HT/PER
                          (F)     (DEG/KT/KT) (MB)    (FT/S) (FT/S)
PORT EVERGLADES            82     240/  1/  3 1013.6F
VIRGINIA KEY               82 86  290/  2/  2 1013.3F
LAKE WORTH                         50/  8/ 10   N/A
FOWEY ROCKS                82 84   CALM  /  1 1014.4S
SETTLEMENT POINT           82      80/  2/  3 1013.9F

$$




USA.gov is the U.S. government's official web portal to all federal, state and local government web resources and services.